Voltar ao catálogo

NOAA 16 DEB

AtivoSSO
NORAD 41134·DEBRIS·🇺🇸 United States

Lançado Sep 21, 2000 de Vandenberg Space Force Base

Loading…

Próximas Passagens (próximas 24 horas)

TLE

AtualizadoSource: Space-Track

Época: Sep 14, 2026, 00:48 UTC

1 41134U 00055BR  26257.03362572  .00001138  00000-0  57976-3 0  9993
2 41134  98.6143 289.6136 0025894 242.3834 117.4711 14.17552812554287

Acompanhe NOAA 16 DEB em tempo real com AllMySat

Download on the App Store